Weather History for East Milton, MA

Change the Weather History Date:

Friday, July 12, 2013

  Actual Average (KBOS) Record (KBOS)
Temperature  
Mean Temperature 67 °F 74 °F  
Max Temperature 71 °F 82 °F 97 °F (1908)
Min Temperature 64 °F 65 °F 54 °F (1886)
Degree Days  
Heating Degree Days 0 0  
Month to date heating degree days 0  
Since 1 June heating degree days 55  
Since 1 July heating degree days 0  
Cooling Degree Days 2 9  
Month to date cooling degree days 97  
Year to date cooling degree days 263  
Since 1 June cooling degree days 233  
Growing Degree Days 17 (Base 50)    
Moisture  
Dew Point 60 °F    
Average Humidity 80    
Maximum Humidity 90    
Minimum Humidity 68    
Precipitation  
Precipitation 0.00 in 0.11 in 1.02 in (2006)
Month to date precipitation 1.16  
Year to date precipitation 23.00  
Sea Level Pressure  
Sea Level Pressure 30.11 in    
Wind  
Wind Speed 12 mph (NE)    
Max Wind Speed 16 mph    
Max Gust Speed 29 mph    
T = Trace of Precipitation, MM = Missing Value Source: NWS Daily Summary

Daily Weather History Graph

Daily Weather History Graph

Search for Another Location

Airport:

Trip Planner

Search our weather history database for the weather conditions in past years. The results will help you decide how hot, cold, wet, or windy it might be!

Date:

Astronomy

Jul. 12, 2013 Rise Set
Actual Time 5:19 AM EDT 8:20 PM EDT
Civil Twilight 4:45 AM EDT 8:54 PM EDT
Nautical Twilight 4:02 AM EDT 9:37 PM EDT
Astronomical Twilight 3:11 AM EDT 10:27 PM EDT
Moon 9:38 AM EDT (7/12) 10:23 PM EDT (7/12)
Length of Visible Light 16h 08m
Length of Day
15h 01m
Waxing Crescent, 17% of the Moon is Illuminated
Jul 12
Waxing Crescent
Jul 15
First Quarter
Jul 22
Full
Jul 29
Last Quarter
Aug 6
New

Hourly Weather History & Observations

Time (EDT) Temp. Dew Point Humidity Pressure Visibility Wind Dir Wind Speed Gust Speed Precip Events Conditions
12:54 AM 70.0 °F 66.9 °F 90% 29.95 in - North 10.4 mph - N/A   Unknown
1:54 AM 70.0 °F 66.9 °F 90% 29.96 in - NNE 11.5 mph - N/A   Unknown
2:54 AM 69.1 °F 66.0 °F 90% 29.97 in - NNE 13.8 mph 19.6 mph N/A   Unknown
3:54 AM 66.9 °F 64.0 °F 90% 30.00 in - NE 13.8 mph - N/A   Unknown
4:54 AM 66.9 °F 64.0 °F 90% 30.02 in - NE 13.8 mph 20.7 mph N/A   Unknown
5:54 AM 66.0 °F 61.0 °F 84% 30.04 in - NE 12.7 mph 21.9 mph N/A   Unknown
6:54 AM 64.9 °F 59.0 °F 81% 30.06 in - NE 13.8 mph 23.0 mph N/A   Unknown
7:54 AM 68.0 °F 59.0 °F 73% 30.08 in - NE 16.1 mph 23.0 mph N/A   Unknown
8:54 AM 69.1 °F 60.1 °F 73% 30.09 in - NE 15.0 mph 23.0 mph N/A   Unknown
9:54 AM 69.1 °F 59.0 °F 70% 30.12 in - NE 16.1 mph 26.5 mph N/A   Unknown
11:54 AM 69.1 °F 57.9 °F 68% 30.15 in - ENE 15.0 mph 28.8 mph N/A   Unknown
1:54 PM 69.1 °F 57.9 °F 68% 30.15 in - NE 12.7 mph 23.0 mph N/A   Unknown
2:54 PM 68.0 °F 57.0 °F 68% 30.16 in - NE 13.8 mph 23.0 mph N/A   Unknown
3:54 PM 68.0 °F 59.0 °F 73% 30.17 in - ENE 12.7 mph 20.7 mph N/A   Unknown
4:54 PM 68.0 °F 59.0 °F 73% 30.17 in - ENE 8.1 mph - N/A   Unknown
5:54 PM 66.9 °F 57.9 °F 73% 30.17 in - ENE 10.4 mph 19.6 mph N/A   Unknown
6:54 PM 66.0 °F 59.0 °F 78% 30.18 in - ENE 8.1 mph 16.1 mph N/A   Unknown
7:54 PM 64.9 °F 57.9 °F 78% 30.18 in - ENE 11.5 mph - N/A   Unknown
8:54 PM 64.0 °F 57.9 °F 80% 30.19 in - ENE 10.4 mph - N/A   Unknown
9:54 PM 64.0 °F 59.0 °F 84% 30.20 in - ENE 10.4 mph - N/A   Unknown
10:54 PM 64.0 °F 61.0 °F 90% 30.22 in - East 8.1 mph - N/A   Unknown
11:54 PM 64.0 °F 61.0 °F 90% 30.22 in - East 9.2 mph - N/A   Unknown